[[{"header":{"parameterUnit":"m.s-1","parameterCategory":1,"la1":30.2991,"la2":30.254,"lo1":-89.0895,"lo2":-89.0444,"dy":0.0017,"dx":0.0017,"nx":28,"ny":28,"refTime":"2023-10-16T21:00:00:Z","depth":0,"parameterNumber":2,"parameterNumberName":"U-component_of_WINDS"},"data":[0,0,0,0,0,0,0,0,0,0,0,0,0,0,0,0,0,0,0,0,0,0,0,0,0,0,0,0,0,0,0,0,0,0,0,0,0,0,0,0,0,0,0,0,0,0,0,0,0,0,0,0,0,0,0,0,0,0,-1.2983,-1.2983,0,-1.2983,-1.2983,-1.2983,-1.2943,-1.2942,-1.2941,-1.294,-1.294,-1.2941,-1.2942,0,0,0,0,0,0,0,0,0,0,0,0,0,-1.2946,-1.2947,-1.2983,-1.2983,-1.2983,-1.2983,-1.2983,-1.2983,-1.2943,-1.2942,-1.2941,-1.2939,-1.294,-1.2941,-1.2942,0,0,0,0,0,0,0,0,0,0,0,0,0,-1.2956,-1.2948,-1.2983,-1.2963,-1.2961,-1.2983,-1.2983,-1.2983,-1.2943,-1.2942,-1.294,-1.2939,-1.294,-1.2941,-1.2943,-1.2984,0,0,-1.2947,-1.2948,0,0,0,0,0,0,0,0,-1.2956,-1.2957,-1.2966,-1.2964,-1.2962,-1.2961,-1.2971,-1.2983,-1.2944,-1.295,-1.294,-1.2938,-1.2949,-1.2949,-1.2953,-1.2984,-1.2984,-1.2947,-1.2948,-1.2949,-1.2949,0,0,0,0,0,0,0,-1.2955,-1.2957,-1.2983,-1.2966,-1.2964,-1.2954,-1.2953,-1.2973,-1.2958,-1.2949,-1.2947,-1.2947,-1.2947,-1.2952,-1.2953,-1.2984,-1.2947,-1.2949,-1.2949,-1.295,-1.3049,-1.3051,0,0,0,0,0,0,-1.2957,-1.2957,-1.2983,-1.2983,-1.2955,-1.2956,-1.2955,-1.2963,-1.2958,-1.2956,-1.2949,-1.2945,-1.295,-1.2951,-1.2952,-1.3001,-1.2949,-1.295,-1.2951,-1.3047,-1.3049,-1.3051,0,0,0,0,0,0,-1.2956,-1.296,-1.2983,-1.2969,-1.2971,-1.2958,-1.2967,-1.2964,-1.2968,-1.2957,-1.2954,-1.2956,-1.2949,-1.295,-1.2976,-1.3,-1.2951,-1.2952,-1.3045,-1.3048,-1.305,-1.3098,0,0,0,0,0,0,-1.2956,-1.296,-1.2975,-1.297,-1.2972,-1.3007,-1.2969,-1.2965,-1.2971,-1.2967,-1.2963,-1.2961,-1.2947,-1.2974,-1.2978,-1.3002,-1.2953,-1.3043,-1.3046,-1.305,-1.3094,-1.3102,-1.3108,0,0,0,0,0,-1.2954,-1.2989,-1.2976,-1.298,-1.2991,-1.3008,-1.301,-1.2993,-1.2973,-1.2989,-1.2982,-1.2961,-1.2997,-1.2977,-1.2981,-1.3005,-1.3042,-1.3046,-1.3049,-1.3091,-1.31,-1.3108,0,0,0,0,0,0,-1.2997,-1.2987,-1.2974,-1.3007,-1.3009,-1.3001,-1.3021,-1.3004,-1.3011,-1.3007,-1.2986,-1.2986,-1.3016,-1.3013,-1.2991,-1.3045,-1.3016,-1.302,-1.3046,-1.3055,-1.3062,-1.3062,-1.2955,0,0,0,0,0,-1.301,-1.3025,-1.3016,-1.3046,-1.3048,-1.3034,-1.3041,-1.3028,-1.3029,-1.303,-1.3025,-1.3026,-1.3038,-1.3046,-1.3056,-1.3093,-1.3092,-1.3112,-1.3119,-1.3125,-1.313,-1.315,-1.3158,-1.3064,-1.3064,-1.3064,0,0,-1.3038,-1.3035,-1.3045,-1.3055,-1.3054,-1.307,-1.3035,-1.3053,-1.3065,-1.3032,-1.3057,-1.3053,-1.3054,-1.3086,-1.31,-1.3085,-1.3155,-1.313,-1.3135,-1.3136,-1.3155,-1.3164,-1.3171,-1.3067,-1.3066,-1.3066,0,0,-1.3097,-1.3095,-1.3121,-1.3121,-1.3122,-1.3113,-1.3119,-1.3114,-1.311,-1.3135,-1.3111,-1.3124,-1.3145,-1.3146,-1.315,-1.3209,-1.3191,-1.3213,-1.325,-1.327,-1.3278,-1.3284,-1.3306,-1.3314,-1.3217,-1.3218,-1.3218,0,-1.3131,-1.3154,-1.3136,-1.3156,-1.3161,-1.3132,-1.3158,-1.316,-1.3163,-1.3167,-1.315,-1.3176,-1.3174,-1.3206,-1.3221,-1.3224,-1.3231,-1.3214,-1.3278,-1.3284,-1.329,-1.3311,-1.3319,-1.322,-1.322,-1.322,-1.322,0,-1.3196,-1.3213,-1.3233,-1.3238,-1.3245,-1.3268,-1.3253,-1.3263,-1.3249,-1.3242,-1.3267,-1.3264,-1.3274,-1.328,-1.3267,-1.3311,-1.3302,-1.3282,-1.3252,-1.3302,-1.3322,-1.3329,-1.3224,-1.3223,-1.3223,-1.3222,0,0,-1.3282,-1.3277,-1.3285,-1.3287,-1.3285,-1.3297,-1.3319,-1.3328,-1.3337,-1.334,-1.3358,-1.3376,-1.3358,-1.3362,-1.3349,-1.3366,-1.3414,-1.3344,-1.3344,-1.3358,-1.3463,-1.3479,-1.3488,-1.3402,-1.3403,-1.3404,-1.3463,0,-1.334,-1.3377,-1.3361,-1.3399,-1.3414,-1.3388,-1.3406,-1.3407,-1.3401,-1.3413,-1.3406,-1.3419,-1.3394,-1.3396,-1.3412,-1.3405,-1.3435,-1.34,-1.3419,-1.3419,-1.342,-1.3498,-1.3514,-1.357,-1.347,-1.3472,-1.3473,0,-1.3412,-1.3419,-1.3459,-1.3455,-1.3461,-1.3478,-1.3485,-1.3497,-1.3498,-1.3492,-1.3496,-1.348,-1.35,-1.347,-1.3499,-1.3476,-1.3482,-1.348,-1.3481,-1.3483,-1.345,-1.3502,-1.3587,-1.3596,-1.3484,-1.3483,-1.3482,0,-1.3472,-1.3491,-1.3517,-1.352,-1.3516,-1.3528,-1.3527,-1.3526,-1.3533,-1.354,-1.3544,-1.3552,-1.3557,-1.3565,-1.3551,-1.353,-1.3582,-1.355,-1.3578,-1.3578,-1.359,-1.359,-1.3678,-1.3593,-1.3593,-1.3593,-1.3593,0,-1.3538,-1.3564,-1.3544,-1.3561,-1.3589,-1.357,-1.3598,-1.3594,-1.3594,-1.3609,-1.3586,-1.3601,-1.3581,-1.3594,-1.3583,-1.3609,-1.3611,-1.3607,-1.3604,-1.361,-1.361,-1.3614,-1.361,-1.3595,-1.3595,-1.3594,-1.3594,0,-1.361,-1.3598,-1.3625,-1.3619,-1.3618,-1.3639,-1.3634,-1.3649,-1.3641,-1.3661,-1.3664,-1.3652,-1.3666,-1.3652,-1.3665,-1.3658,-1.3693,-1.3683,-1.3693,-1.369,-1.3719,-1.3717,-1.3814,-1.3826,-1.3733,-1.3733,-1.3734,0,-1.3653,-1.3673,-1.3669,-1.3678,-1.3678,-1.3692,-1.3699,-1.3682,-1.369,-1.3692,-1.3707,-1.3719,-1.3728,-1.3751,-1.3743,-1.3753,-1.3745,-1.3778,-1.3746,-1.3751,-1.3746,-1.3746,-1.3748,-1.3785,-1.3786,-1.3787,-1.3788,0,-1.3732,-1.3726,-1.3736,-1.3745,-1.3754,-1.376,-1.3765,-1.3773,-1.3755,-1.3765,-1.378,-1.3786,-1.38,-1.3812,-1.382,-1.3819,-1.3801,-1.3798,-1.3805,-1.3811,-1.3816,-1.3814,-1.3711,-1.3796,-1.3795,-1.3794,-1.3794,-1.3793,-1.3792,-1.3808,-1.3808,-1.3821,-1.3823,-1.3827,-1.3841,-1.3835,-1.3847,-1.3856,-1.3845,-1.3863,-1.3863,-1.3871,-1.3872,-1.3886,-1.3872,-1.3882,-1.3885,-1.3888,-1.3892,-1.3813,-1.3887,-1.3887,-1.3887,-1.3886,-1.3886,0,-1.387,-1.3869,-1.3881,-1.3888,-1.3899,-1.388,-1.3884,-1.3894,-1.391,-1.3912,-1.3921,-1.3937,-1.3949,-1.3943,-1.3953,-1.3965,-1.3957,-1.3968,-1.3968,-1.3968,-1.3904,-1.3897,-1.3975,-1.3975,-1.3975,-1.3975,-1.3975,-1.3975,-1.3913,-1.3939,-1.3932,-1.3959,-1.3958,-1.3975,-1.3979,-1.3983,-1.3984,-1.4004,-1.4014,-1.4009,-1.4008,-1.4018,-1.4028,-1.4026,-1.4031,-1.4046,-1.404,-1.3981,-1.3972,-1.3964,-1.3958,-1.4047,-1.4047,-1.4103,-1.4104,-1.4104]},{"header":{"parameterUnit":"m.s-1","parameterCategory":1,"la1":30.2991,"la2":30.254,"lo1":-89.0895,"lo2":-89.0444,"dy":0.0017,"dx":0.0017,"nx":28,"ny":28,"refTime":"2023-10-16T21:00:00:Z","depth":0,"parameterNumber":3,"parameterNumberName":"V-component_of_WINDS"},"data":[0,0,0,0,0,0,0,0,0,0,0,0,0,0,0,0,0,0,0,0,0,0,0,0,0,0,0,0,0,0,0,0,0,0,0,0,0,0,0,0,0,0,0,0,0,0,0,0,0,0,0,0,0,0,0,0,0,0,-2.5561,-2.5562,0,-2.5607,-2.5607,-2.5608,-2.5579,-2.5578,-2.5577,-2.5575,-2.562,-2.5622,-2.5625,0,0,0,0,0,0,0,0,0,0,0,0,0,-2.5447,-2.5449,-2.5561,-2.5562,-2.5562,-2.5607,-2.5607,-2.5608,-2.558,-2.5578,-2.5576,-2.5575,-2.5619,-2.5622,-2.5625,0,0,0,0,0,0,0,0,0,0,0,0,0,-2.5495,-2.545,-2.5561,-2.5553,-2.5553,-2.5607,-2.5607,-2.5608,-2.558,-2.5578,-2.5576,-2.5574,-2.5618,-2.5622,-2.5625,-2.5688,0,0,-2.5637,-2.5638,0,0,0,0,0,0,0,0,-2.5492,-2.5499,-2.5554,-2.5554,-2.5554,-2.5585,-2.5583,-2.5635,-2.558,-2.557,-2.5575,-2.5573,-2.561,-2.5614,-2.5627,-2.569,-2.5692,-2.5637,-2.5639,-2.5641,-2.5642,0,0,0,0,0,0,0,-2.5489,-2.5497,-2.5579,-2.5555,-2.5555,-2.5547,-2.5552,-2.5593,-2.56,-2.5571,-2.5569,-2.5575,-2.561,-2.5624,-2.5628,-2.5693,-2.5637,-2.564,-2.5642,-2.5644,-2.581,-2.5812,0,0,0,0,0,0,-2.5487,-2.5494,-2.5578,-2.558,-2.5518,-2.5551,-2.5556,-2.5577,-2.56,-2.5602,-2.5576,-2.5573,-2.5618,-2.5624,-2.5629,-2.5705,-2.5641,-2.5644,-2.5646,-2.5808,-2.5811,-2.5813,0,0,0,0,0,0,-2.5484,-2.5494,-2.5576,-2.5537,-2.5547,-2.5555,-2.5579,-2.5579,-2.5593,-2.5604,-2.5605,-2.5589,-2.5617,-2.5624,-2.5674,-2.5706,-2.5646,-2.5649,-2.5805,-2.5809,-2.5812,-2.5857,0,0,0,0,0,0,-2.5481,-2.5494,-2.5518,-2.5538,-2.5549,-2.5621,-2.5581,-2.5582,-2.56,-2.5596,-2.5617,-2.5618,-2.5616,-2.5669,-2.5678,-2.571,-2.5652,-2.5803,-2.5807,-2.5811,-2.5853,-2.5861,-2.5869,0,0,0,0,0,-2.5477,-2.5528,-2.5519,-2.553,-2.558,-2.5622,-2.5629,-2.5626,-2.5603,-2.5627,-2.5634,-2.5618,-2.5701,-2.5674,-2.5684,-2.5718,-2.5801,-2.5806,-2.5811,-2.5849,-2.586,-2.5869,0,0,0,0,0,0,-2.5511,-2.553,-2.5521,-2.558,-2.56,-2.5618,-2.5648,-2.5637,-2.5663,-2.5658,-2.5653,-2.5657,-2.571,-2.5719,-2.5688,-2.578,-2.5747,-2.5754,-2.5773,-2.5783,-2.5791,-2.5788,-2.5655,0,0,0,0,0,-2.5525,-2.5559,-2.5574,-2.5624,-2.5635,-2.564,-2.5658,-2.5654,-2.5674,-2.5682,-2.5693,-2.5712,-2.5743,-2.5763,-2.5792,-2.5853,-2.5858,-2.5882,-2.589,-2.5896,-2.5903,-2.5937,-2.5948,-2.583,-2.583,-2.583,0,0,-2.5555,-2.557,-2.5591,-2.5632,-2.5646,-2.5681,-2.5647,-2.5685,-2.5711,-2.5688,-2.5736,-2.5745,-2.5766,-2.5822,-2.5847,-2.5831,-2.5937,-2.5903,-2.5908,-2.5911,-2.5943,-2.5955,-2.5964,-2.5833,-2.5833,-2.5832,0,0,-2.5627,-2.5642,-2.5686,-2.5702,-2.5726,-2.5729,-2.5739,-2.5759,-2.5764,-2.5813,-2.5797,-2.5826,-2.5879,-2.5895,-2.591,-2.599,-2.5976,-2.5999,-2.6042,-2.6075,-2.6085,-2.6093,-2.6122,-2.6133,-2.6005,-2.6005,-2.6006,0,-2.5661,-2.5714,-2.571,-2.575,-2.5768,-2.575,-2.5795,-2.581,-2.5841,-2.5854,-2.5836,-2.5902,-2.5915,-2.5975,-2.5995,-2.6007,-2.6019,-2.5997,-2.6084,-2.6092,-2.61,-2.6127,-2.6138,-2.6008,-2.6008,-2.6008,-2.6007,0,-2.5755,-2.5792,-2.5825,-2.5857,-2.5879,-2.592,-2.5923,-2.5945,-2.5939,-2.5944,-2.5994,-2.6009,-2.6041,-2.6054,-2.6048,-2.6114,-2.6104,-2.6084,-2.6051,-2.6114,-2.614,-2.615,-2.6012,-2.6011,-2.601,-2.601,0,0,-2.585,-2.5881,-2.5893,-2.5908,-2.5932,-2.596,-2.6001,-2.6034,-2.6053,-2.6075,-2.611,-2.6155,-2.6138,-2.6155,-2.6151,-2.618,-2.6243,-2.6157,-2.6157,-2.6174,-2.6317,-2.6333,-2.6345,-2.6233,-2.6235,-2.6237,-2.6316,0,-2.5925,-2.5999,-2.5997,-2.6064,-2.6098,-2.6082,-2.6117,-2.6136,-2.6142,-2.6171,-2.6177,-2.621,-2.6184,-2.6194,-2.6222,-2.6229,-2.6272,-2.6223,-2.6266,-2.6267,-2.6262,-2.6358,-2.6374,-2.6448,-2.6326,-2.6328,-2.6329,0,-2.6023,-2.605,-2.6121,-2.6142,-2.6156,-2.6189,-2.6219,-2.6247,-2.6268,-2.627,-2.6289,-2.6281,-2.6322,-2.6287,-2.6344,-2.6311,-2.6328,-2.6334,-2.6337,-2.6342,-2.6303,-2.6367,-2.6472,-2.6483,-2.6345,-2.6344,-2.6342,0,-2.6087,-2.6141,-2.6191,-2.6204,-2.6229,-2.6252,-2.6263,-2.6282,-2.6302,-2.6328,-2.6341,-2.637,-2.6387,-2.641,-2.6409,-2.6383,-2.6467,-2.6432,-2.647,-2.647,-2.6489,-2.6488,-2.66,-2.6498,-2.6498,-2.6498,-2.6498,0,-2.6172,-2.6216,-2.622,-2.6251,-2.6301,-2.6298,-2.6346,-2.6355,-2.6373,-2.6405,-2.6391,-2.6421,-2.6418,-2.6448,-2.6448,-2.6496,-2.6503,-2.6506,-2.6505,-2.6508,-2.6508,-2.6519,-2.6515,-2.6501,-2.65,-2.65,-2.6499,0,-2.6252,-2.6256,-2.631,-2.633,-2.6335,-2.6371,-2.6388,-2.6417,-2.6421,-2.6462,-2.6472,-2.6479,-2.6514,-2.6515,-2.6555,-2.6555,-2.6613,-2.6606,-2.6607,-2.6606,-2.6645,-2.6642,-2.6769,-2.6785,-2.6672,-2.6673,-2.6674,0,-2.6306,-2.6341,-2.6364,-2.6385,-2.6399,-2.6432,-2.6453,-2.6451,-2.6473,-2.6499,-2.6526,-2.656,-2.6587,-2.6644,-2.6652,-2.6682,-2.6677,-2.6719,-2.6681,-2.6683,-2.6679,-2.6678,-2.6681,-2.6727,-2.6728,-2.6729,-2.673,0,-2.6403,-2.6403,-2.6434,-2.6466,-2.6491,-2.6516,-2.6538,-2.6556,-2.6557,-2.6582,-2.6618,-2.6639,-2.6681,-2.6715,-2.6745,-2.6756,-2.6743,-2.6742,-2.6753,-2.6756,-2.6755,-2.6758,-2.6628,-2.6739,-2.6738,-2.6738,-2.6737,-2.6737,-2.6473,-2.6503,-2.6525,-2.6559,-2.6576,-2.6598,-2.6627,-2.6636,-2.6667,-2.6701,-2.6697,-2.6738,-2.6758,-2.6797,-2.6811,-2.6842,-2.6827,-2.6843,-2.6847,-2.6851,-2.6856,-2.675,-2.6847,-2.6847,-2.6847,-2.6846,-2.6846,0,-2.6569,-2.6583,-2.6615,-2.6648,-2.6675,-2.6662,-2.6687,-2.671,-2.6747,-2.6767,-2.6794,-2.6836,-2.687,-2.6881,-2.6913,-2.6936,-2.6931,-2.6944,-2.6943,-2.6946,-2.6866,-2.6855,-2.6948,-2.6948,-2.6948,-2.6948,-2.6948,-2.6948,-2.6623,-2.6674,-2.6677,-2.6736,-2.6749,-2.679,-2.6805,-2.6825,-2.6842,-2.689,-2.6918,-2.6925,-2.6942,-2.6975,-2.7005,-2.7007,-2.702,-2.7036,-2.7036,-2.6962,-2.6952,-2.6942,-2.6931,-2.7039,-2.7039,-2.7114,-2.7114,-2.7115]}]]